User: anonymous   Login
Location: Ay?beleni
(36.6500°N, 30.3000°E)
Time: 00:52:15
(UTC+00:00)
Language:

CZ-4C R/B - Orbit

View from above orbital plane
View from above orbital plane
View from above satellite
View from above satellite

Ground track
Ground track

The orbit data is extracted from the following two-line orbital elements,

1 36416U 10009D   20188.32388180 -.00000109 +00000-0 -11840-6 0  9994
2 36416 063.4239 150.2330 0496837 355.2821 004.3622 13.69571222516935
Epoch (UTC): 06 July 2020 07:46:23
Eccentricity: 0.0496837
inclination: 63.4239°
perigee height: 634 km
apogee height: 1368 km
right ascension of ascending node: 150.2330°
argument of perigee: 355.2821°
revolutions per day: 13.69571222
mean anomaly at epoch: 4.3622°
orbit number at epoch: 51693

The dashed part of the orbit path shows where the satellite is in the earth's shadow,  

DLR